Skip Page Navigation
NASA JPL Caltech
NASA Logo - Jet Propulsion Laboratory + View the NASA Portal
+ Center for Near-Earth Object Studies
JPL Home Earth Solar System Stars & Galaxies Technology
JPL Solar System Dynamics
BODIES ORBITS EPHEMERIDES TOOLS PHYSICAL DATA DISCOVERY FAQ SITE MAP
IMPORTANT: The SSD Announcement email list is now available. Major changes are coming in the near future, including possible hostname and/or URL changes. To be notified of such changes, subscribe to this email list.

Please visit this page for more details.


JPL Small-Body Database Browser
Search: [ help ]  
351084 (2003 UT106)
Classification: Main-belt Asteroid          SPK-ID: 2351084
Ephemeris | Orbit Diagram | Orbital Elements | Mission Design | Physical Parameters | Discovery Circumstances ]

[ show orbit diagram ]
Orbital Elements at Epoch 2458600.5 (2019-Apr-27.0) TDB
Reference: JPL 9 (heliocentric ecliptic J2000)
 Element Value Uncertainty (1-sigma)   Units 
e .1448111530577254 1.278e-07  
a 2.668584684133199 2.4448e-08 au
q 2.282143858991685 3.4507e-07 au
i 12.03105022608212 1.4775e-05 deg
node 251.8114911435425 4.9753e-05 deg
peri 184.7790956456269 6.9524e-05 deg
M 174.0414604759134 4.7011e-05 deg
tp 2457830.713786455923
(2017-Mar-18.21378646)
0.00020418 TDB
period 1592.281724814763
4.36
2.1881e-05
5.991e-08
d
yr
n .2260906436277037 3.107e-09 deg/d
Q 3.055025509274714 2.7988e-08 au
  Orbit Determination Parameters
   # obs. used (total)      140  
   data-arc span      5734 days (15.70 yr)  
   first obs. used      2003-10-18  
   last obs. used      2019-06-30  
   planetary ephem.      DE431  
   SB-pert. ephem.      SB431-N16  
   condition code      0  
   norm. resid. RMS      .58278  
   source      ORB  
   producer      Otto Matic  
   solution date      2019-Sep-24 06:36:50  

Additional Information
 Earth MOID = 1.29737 au 
 Jupiter MOID = 2.22251 au 
 T_jup = 3.336 
[ hide covariance matrix ]
Orbital Elements at Epoch 2456723.5 (2014-Mar-07.0) TDB
Reference: JPL 9 (heliocentric ecliptic J2000)
 Element Value Uncertainty (1-sigma)   Units 
e .1464134933020477 1.2904e-07  
q 2.274537816678314 3.4946e-07 au
tp 2456239.556922606713
(2012-Nov-08.05692261)
0.00019216 TDB
node 251.8447059456512 4.9814e-05 deg
peri 184.1666849052752 6.9018e-05 deg
i 12.0293932446986 1.4788e-05 deg
  Orbit Determination Parameters
   # obs. used (total)      140  
   data-arc span      5734 days (15.70 yr)  
   first obs. used      2003-10-18  
   last obs. used      2019-06-30  
   planetary ephem.      DE431  
   SB-pert. ephem.      SB431-N16  
   condition code      0  
   norm. resid. RMS      .58278  
   source      ORB  
   producer      Otto Matic  
   solution date      2019-Sep-24 06:36:50  

Additional Information
 Jupiter MOID = 2.22251 au 
 T_jup = 3.336 
Orbit Covariance (6×6)
  e q tp node peri i
e 1.665178778674753E-14 -4.501665450319054E-14 -1.779282121076878E-11 -1.460560214670242E-14 -4.293782504248761E-12 -6.669957194701841E-14
q -4.501665450319054E-14 1.221205036823928E-13 4.860779055493956E-11 3.878940279939849E-14 1.176662956522821E-11 1.828652307702816E-13
tp -1.779282121076878E-11 4.860779055493956E-11 3.692453137613685E-8 4.648391645020995E-11 9.31199808210474E-9 8.41468776272933E-11
node -1.460560214670242E-14 3.878940279939849E-14 4.648391645020995E-11 2.481445741409292E-9 -2.412274573408975E-9 -5.021136107574913E-10
peri -4.293782504248761E-12 1.176662956522821E-11 9.31199808210474E-9 -2.412274573408975E-9 4.76351391523968E-9 5.116717417529537E-10
i -6.669957194701841E-14 1.828652307702816E-13 8.41468776272933E-11 -5.021136107574913E-10 5.116717417529537E-10 2.186972533084625E-10

Ephemeris | Orbit Diagram | Orbital Elements | Mission Design | Physical Parameters | Discovery Circumstances ]

Physical Parameter Table
Parameter Symbol Value Units Sigma Reference Notes
absolute magnitude H 16.4   n/a MPO446571  

351084 (2003 UT106)          Discovered 2003-Oct-18 by NEAT at Palomar
Reference: 20130127/Numbers.arcLast Updated: 2013-01-31
Ephemeris | Orbit Diagram | Orbital Elements | Mission Design | Physical Parameters | Discovery Circumstances ]
ABOUT SSD CREDITS/AWARDS PRIVACY/COPYRIGHT GLOSSARY LINKS
FirstGov 2019-Dec-14 05:16 UT
(server date/time)  
NASA Home Page
Site Manager:   Ryan S. Park
Webmaster  Alan B. Chamberlin